Theta_e
307 308 308 307 306 303 293 295 305 306 306 306 305 302 303 303 301 302 302 299 301 297 297 298 298 302 302 303 307 306 307 306 307 309 308 307 306 306 306 306 309 308 307 308 308 309 309 305 305 306 304 307 307 306
307 308 308 308 306 303 293 294 304 306 306 306 305 302 302 305 304 301 303 300 300 299 297 297 297 297 298 298 299 303 305 306 307 303 304 304 306 303 304 305 306 306 305 306 306 307 304 302 305 304 305 306 307 306
307 309 308 308 306 303 293 294 304 306 306 305 306 303 304 301 299 300 301 301 302 296 296 297 298 298 297 297 297 303 302 300 303 301 304 305 306 302 304 303 305 305 303 306 306 304 304 303 304 303 306 306 305 304
307 309 308 308 306 303 293 296 304 307 306 305 305 303 301 299 299 300 301 299 301 300 299 299 297 298 298 298 298 298 298 299 300 300 304 305 307 302 302 302 303 302 303 304 304 303 305 303 302 302 304 304 304 303
307 309 309 307 306 303 293 298 305 306 305 304 303 301 302 302 301 300 297 297 298 301 300 297 297 297 297 298 299 299 299 299 300 302 303 305 302 303 301 301 301 301 303 305 305 302 303 302 301 301 302 303 302 302
307 308 309 308 306 304 293 297 304 305 305 304 302 300 301 301 302 303 298 297 297 300 296 299 297 297 297 298 299 299 298 297 297 301 301 299 299 301 301 302 302 300 300 301 302 301 301 303 301 300 302 302 301 300
307 308 308 308 307 304 293 296 303 305 305 305 303 302 301 301 303 303 298 299 297 297 296 295 296 295 297 297 296 296 297 296 297 297 300 299 299 299 299 304 302 301 300 300 301 302 304 303 303 300 301 301 303 301
307 308 308 308 307 304 293 295 303 305 305 304 303 301 301 303 304 301 300 299 297 297 296 291 293 295 296 297 298 294 296 295 296 297 296 298 297 296 300 300 301 300 299 299 300 300 301 300 300 300 300 300 299 299
307 308 308 308 307 304 294 296 302 305 305 302 300 301 301 299 299 300 298 297 297 298 294 294 293 295 294 296 295 295 294 299 295 298 297 297 298 300 301 300 299 300 300 301 299 299 300 300 300 299 299 299 299 298
308 308 308 308 307 304 294 296 304 306 305 302 302 298 298 299 297 297 298 297 294 296 294 295 294 297 295 295 296 298 296 298 295 298 295 298 299 300 301 300 300 299 298 298 299 299 299 299 299 298 300 299 299 298
308 308 308 308 306 302 294 298 304 305 303 299 297 297 298 296 297 296 296 295 296 296 296 294 294 294 294 296 298 297 296 294 294 296 298 295 298 300 298 298 299 300 297 298 300 300 299 299 299 299 298 297 297 297
307 308 308 307 306 299 295 301 304 304 301 300 298 297 297 296 293 295 294 294 296 297 294 294 294 294 294 294 298 295 296 293 296 295 295 296 297 298 296 295 294 295 296 297 297 298 297 298 298 298 298 297 297 298
307 307 307 307 305 296 296 303 304 303 298 297 297 296 292 291 294 294 296 295 291 293 292 291 293 294 293 294 296 295 294 296 294 291 296 296 295 296 295 293 293 293 295 297 297 298 297 298 299 298 296 298 298 297
307 307 307 306 304 295 297 303 304 299 299 297 299 297 295 296 296 296 295 294 293 291 293 293 292 294 295 295 296 291 296 296 291 291 296 294 295 294 293 292 293 295 296 297 297 296 296 296 296 298 298 298 297 295
307 306 306 304 299 295 297 303 299 298 298 298 298 301 300 297 292 292 293 291 290 293 294 294 292 294 292 294 296 293 293 293 294 294 294 293 295 292 293 293 292 294 295 295 295 295 294 295 295 295 296 297 296 295
306 304 301 300 296 296 298 301 298 298 296 297 297 298 297 294 295 293 286 293 290 295 291 292 291 291 294 294 292 293 291 292 293 292 295 291 293 292 292 293 292 293 294 294 293 293 294 294 294 294 294 294 294 294
303 301 300 297 296 297 298 297 297 298 298 299 298 297 295 292 294 294 293 294 293 294 291 290 292 295 291 288 292 292 292 293 293 294 291 292 291 292 292 292 292 293 294 293 293 294 294 295 294 292 290 291 291 291
302 299 297 296 297 298 298 298 296 296 298 297 298 298 297 295 294 295 293 294 294 292 293 292 290 290 291 292 293 292 292 290 289 291 291 291 291 291 292 292 292 293 293 293 293 292 292 291 290 290 291 290 289 288
301 297 296 297 298 295 295 295 294 296 295 295 289 290 294 294 293 294 293 295 292 292 290 287 290 291 293 293 292 289 289 290 292 291 292 291 291 291 292 292 292 291 292 291 290 291 291 292 291 290 290 288 286 286
299 297 296 298 296 294 294 294 294 294 295 294 289 290 291 291 292 293 294 294 293 286 286 290 293 294 293 292 290 291 290 291 291 292 292 291 290 290 290 290 291 292 290 290 291 290 288 287 288 288 287 286 285 283
297 297 298 296 295 294 294 292 294 295 294 293 290 292 290 287 290 291 292 292 294 295 293 292 295 296 293 293 294 291 290 289 290 293 295 291 290 291 289 290 291 289 288 288 288 287 287 285 286 285 285 284 283 282
294 296 295 294 292 293 294 292 292 292 292 292 292 290 293 293 293 290 288 293 296 296 293 296 296 295 295 295 294 293 294 293 290 290 293 293 290 286 288 288 288 289 288 288 287 287 286 285 284 283 282 281 281 280
294 293 292 292 294 294 294 291 290 291 292 293 293 294 294 293 289 286 291 291 290 291 295 295 295 295 294 295 294 294 294 291 292 291 291 292 292 292 291 289 290 290 289 287 287 286 284 283 282 281 281 279 279 278
294 293 294 295 294 293 292 292 291 291 291 293 293 293 291 288 292 295 294 287 292 284 291 293 293 293 293 283 289 293 294 291 292 294 292 289 288 288 290 290 289 289 290 287 285 283 282 282 282 280 279 278 277 277
293 293 294 294 291 289 289 289 290 293 293 290 291 288 292 292 293 292 291 286 291 291 293 293 292 292 293 294 294 293 294 293 291 292 292 290 292 286 285 287 287 287 288 284 281 281 280 281 280 279 278 277 277 276
293 292 294 293 290 288 288 290 291 291 289 290 290 285 288 289 286 288 286 286 289 290 292 291 292 292 292 293 293 293 293 293 291 290 292 291 289 289 287 285 284 282 284 285 282 280 279 279 278 277 277 277 278 276
292 294 292 288 288 287 288 288 289 289 289 290 289 289 287 287 286 287 284 284 290 287 293 294 293 293 293 292 293 294 294 293 291 290 291 291 290 289 290 288 287 287 285 283 282 281 280 278 278 277 276 276 276 275
289 289 292 288 286 284 287 287 287 288 288 286 288 287 288 288 290 287 286 285 289 288 288 289 290 291 292 292 292 291 289 287 285 286 287 286 286 287 288 289 289 288 287 285 283 281 281 280 278 277 276 275 274 274
290 287 289 286 285 285 287 287 288 287 288 288 288 286 285 284 282 282 279 284 284 284 277 277 284 287 287 287 288 287 286 283 282 284 285 285 279 280 283 286 284 283 283 281 280 281 281 280 278 277 276 275 274 273
288 288 285 285 286 289 287 285 284 281 282 284 283 283 283 282 280 286 284 280 277 278 281 284 285 282 279 278 277 278 282 283 285 288 289 289 285 280 280 280 280 279 280 280 279 278 278 277 276 274 274 273 273 272
286 283 283 284 286 282 279 275 274 278 274 275 272 282 288 278 278 282 282 283 283 282 280 278 279 281 279 276 277 276 280 282 282 284 286 287 284 280 279 279 279 279 280 279 278 277 276 275 274 273 272 272 272 272
282 285 286 285 282 273 272 276 275 278 274 276 276 270 273 276 281 280 285 281 277 276 280 282 279 280 282 284 284 284 284 285 283 283 284 284 280 279 280 279 278 279 278 277 277 276 275 274 273 272 272 272 272 272
280 277 273 276 275 277 276 278 279 279 276 274 275 275 275 280 285 282 283 283 283 284 282 282 283 283 284 284 284 283 283 284 284 283 285 285 283 281 279 278 279 278 277 276 276 275 274 273 273 272 272 272 272 272
Wind_Speed
15 15 15 14 11 11 12 7 5 3 1 7 10 14 14 9 5 4 2 3 2 1 4 4 4 3 4 3 1 3 3 3 3 2 1 2 2 3 1 4 3 4 3 3 2 1 6 6 4 7 4 2 5 5
18 16 17 14 11 9 10 8 6 4 4 12 12 10 4 2 2 4 1 2 2 4 2 4 2 1 1 3 1 3 2 1 2 2 0 0 2 1 3 3 1 2 6 3 7 5 4 6 4 3 5 5 5 6
20 18 19 15 13 9 9 8 9 9 11 14 15 11 6 2 1 4 4 3 1 2 1 2 1 2 2 2 3 1 1 3 3 1 2 2 3 3 2 5 3 4 4 3 1 3 7 8 5 5 5 6 6 6
22 20 21 17 14 11 8 7 7 7 14 15 17 12 8 5 5 3 3 3 3 2 3 4 3 3 3 3 2 3 3 5 3 1 1 1 2 3 3 4 4 6 6 5 5 6 1 6 8 9 7 7 6 6
25 23 22 21 15 13 8 6 3 7 13 16 15 11 8 4 3 4 5 3 1 2 3 3 2 6 5 4 4 5 3 1 1 2 0 3 2 1 3 2 5 7 8 6 6 8 7 5 10 9 10 9 9 8
27 26 24 22 17 15 11 10 7 11 15 15 13 11 8 3 1 1 3 0 1 2 3 1 2 1 2 1 4 4 3 2 1 1 3 2 1 1 3 4 7 6 7 8 6 5 7 3 6 8 11 10 9 9
30 28 27 25 21 16 14 14 12 13 14 15 13 10 7 4 2 3 3 1 2 2 2 3 3 2 2 1 1 0 2 2 3 2 3 2 2 3 3 9 5 7 9 8 5 6 2 4 5 9 8 9 15 11
33 31 30 28 24 19 17 16 15 14 17 15 13 10 6 5 5 4 5 4 2 1 2 1 3 3 3 1 2 2 1 1 2 3 1 3 0 2 5 11 7 9 7 7 10 7 6 5 5 7 6 9 8 8
35 34 32 31 27 22 20 18 17 17 16 15 13 8 4 3 3 2 2 2 3 2 2 2 4 4 2 2 3 1 2 2 2 3 3 4 3 6 13 8 7 9 7 7 7 6 6 8 9 8 8 8 8 8
38 38 35 34 30 25 23 21 21 21 20 17 11 4 2 4 3 1 1 2 3 2 1 3 2 3 4 2 1 2 2 2 2 3 1 3 4 19 19 18 13 9 9 7 6 7 6 7 10 9 13 11 8 9
41 40 38 37 33 28 26 25 23 25 21 8 5 3 4 6 4 2 1 2 1 3 3 3 4 4 3 3 3 2 2 2 1 3 0 3 4 6 7 11 14 17 11 13 12 10 9 5 10 10 7 8 10 12
43 42 41 39 36 32 30 30 31 28 14 13 12 7 5 2 2 3 3 2 4 5 2 4 3 2 1 2 2 1 3 3 4 0 2 3 5 7 7 9 10 8 10 11 8 9 9 8 10 9 8 7 12 17
45 44 43 41 39 33 34 34 34 24 21 11 3 3 3 1 1 7 7 4 2 4 4 2 1 3 1 2 2 2 3 4 2 1 4 6 5 7 12 8 8 8 7 7 7 8 11 10 15 13 8 15 17 15
47 46 45 44 42 36 37 38 34 31 7 3 5 5 5 5 6 5 4 4 4 3 6 4 3 3 2 2 2 3 3 2 2 1 7 3 5 9 9 6 6 6 4 5 6 7 7 8 8 13 17 18 18 14
47 49 48 48 43 40 40 41 37 26 5 4 4 6 8 4 1 2 1 2 1 5 5 3 3 3 1 2 3 3 2 4 6 5 3 4 6 8 9 6 7 5 1 2 3 5 6 10 10 10 14 15 14 13
47 43 38 48 46 43 43 40 29 14 1 3 5 3 2 3 2 2 2 3 3 5 2 2 4 3 4 4 3 7 6 7 4 3 4 3 7 8 6 6 6 4 4 4 5 7 9 10 11 12 13 13 12 11
51 16 37 52 49 44 45 15 6 5 5 6 4 5 4 2 4 4 5 4 6 4 3 3 6 9 2 2 3 5 6 4 4 4 3 5 6 5 6 5 5 5 5 6 7 10 11 12 14 14 6 9 9 8
25 32 57 57 51 45 28 10 6 6 8 4 4 6 6 2 3 3 4 5 5 4 4 5 3 3 5 6 4 4 5 4 3 4 3 4 5 6 4 6 5 7 7 10 12 14 15 16 10 7 11 12 10 7
34 55 63 62 51 19 5 6 6 4 5 2 2 1 4 2 2 3 4 8 3 3 4 2 3 4 4 5 5 4 3 3 4 4 4 6 8 5 7 9 9 8 10 11 14 13 16 17 12 13 14 13 9 9
46 62 66 58 45 6 4 2 8 2 4 4 2 2 2 3 3 4 5 6 4 3 2 3 6 5 4 4 4 4 4 4 3 3 5 3 7 9 8 8 7 11 10 10 13 14 13 9 9 11 11 10 10 9
49 57 61 48 10 6 3 4 4 3 4 3 3 4 2 1 2 3 3 4 3 4 4 6 7 9 7 7 12 8 5 5 6 6 7 5 3 8 8 13 14 12 6 7 5 9 13 11 15 13 12 10 7 7
21 51 20 12 2 3 3 4 4 4 3 2 4 3 2 3 3 3 4 3 4 8 6 10 11 11 11 13 13 19 22 17 17 11 11 7 3 2 4 10 11 7 9 11 11 10 11 17 18 16 13 10 8 5
42 17 4 4 3 3 4 8 4 4 4 5 4 5 3 3 3 2 3 4 5 7 12 12 17 21 12 21 17 19 24 18 10 9 10 12 15 15 12 13 18 12 7 14 19 16 15 17 16 17 14 10 8 5
27 4 4 4 4 5 5 4 3 4 3 4 5 4 4 4 3 3 4 4 7 2 6 14 10 10 10 3 8 13 21 18 17 18 18 11 6 8 18 17 19 19 18 17 20 16 18 19 16 16 15 12 9 6
7 5 6 5 4 5 5 4 4 4 4 4 5 1 2 3 5 5 5 4 7 7 9 9 7 9 11 12 11 11 22 21 9 11 17 21 16 5 8 12 14 18 25 22 15 17 16 20 19 17 15 12 10 8
5 6 11 9 5 5 6 6 8 6 5 4 5 2 3 4 4 7 4 4 5 5 8 9 10 9 9 11 11 10 12 17 20 9 18 22 22 12 9 9 6 10 23 24 24 21 19 20 19 17 14 11 11 9
6 5 4 2 4 6 4 2 3 4 5 6 5 6 4 5 7 5 3 3 4 4 14 18 14 9 10 7 16 24 22 20 18 14 15 17 26 26 23 16 12 14 29 29 27 28 26 23 20 18 15 14 13 11
3 4 9 7 4 2 6 4 5 7 5 4 7 6 11 10 7 4 5 3 7 9 8 8 10 13 15 19 19 14 8 11 11 8 5 8 12 14 18 18 16 17 27 30 28 27 26 26 24 21 18 16 14 10
3 4 7 4 4 3 5 6 7 4 4 6 7 5 5 4 3 4 4 9 11 9 3 2 8 10 10 11 11 15 15 20 9 7 9 5 3 7 15 19 21 22 25 25 20 23 22 21 20 19 17 15 12 9
5 3 5 4 6 6 5 5 4 3 3 4 2 2 2 3 4 8 9 10 6 5 11 13 12 15 6 4 3 8 17 22 20 11 8 8 7 17 24 26 29 30 32 30 27 22 19 20 19 18 16 14 12 10
5 3 4 3 4 2 2 2 1 2 2 1 1 3 8 3 4 9 17 20 21 16 9 6 8 17 10 5 5 4 6 19 23 18 11 11 19 27 30 30 29 32 33 32 29 27 26 23 21 20 17 15 12 10
2 4 5 4 2 3 2 2 3 2 0 1 3 1 3 3 4 3 12 20 12 6 14 14 6 7 22 22 20 19 7 8 17 21 18 20 25 30 34 33 32 33 32 30 27 29 27 25 22 19 18 15 12 9
3 3 3 4 2 1 1 4 1 1 2 2 3 4 4 4 7 4 7 22 19 18 17 21 19 15 12 13 17 16 15 12 14 21 21 22 28 36 36 34 33 33 32 30 29 28 26 24 22 19 16 14 11 8
Wind_Direction
245 255 264 276 289 311 315 314 312 355 213 186 164 145 127 90 48 25 329 8 58 96 300 11 1 350 346 25 152 283 40 334 21 40 113 262 173 244 321 248 202 186 160 209 150 153 271 159 111 166 208 121 152 137
241 246 258 264 270 293 302 289 284 255 226 203 185 169 161 96 41 322 275 74 57 118 242 343 7 33 3 141 144 321 203 262 196 85 257 159 294 297 193 269 310 242 187 194 180 214 222 201 201 197 165 156 162 134
238 238 250 254 259 272 283 265 281 257 220 208 184 184 180 171 112 171 174 123 118 109 343 25 321 299 338 336 302 343 3 340 2 213 177 210 250 133 231 244 228 258 187 213 34 238 208 195 189 183 168 176 162 155
235 234 243 246 247 260 267 264 299 273 193 187 177 181 169 138 104 123 145 145 162 151 133 238 193 222 241 302 263 245 275 313 256 28 310 212 216 166 238 246 208 210 147 197 255 266 248 234 198 183 176 158 144 154
232 230 236 243 235 252 251 230 213 174 180 181 185 187 175 153 93 84 96 93 132 168 205 263 282 195 182 186 209 207 235 293 18 356 5 244 259 322 268 303 241 192 196 184 220 214 179 222 203 176 167 177 167 152
229 227 229 238 231 236 235 209 200 195 188 185 183 184 186 174 325 313 15 64 118 170 86 308 309 227 223 202 163 161 163 153 127 173 244 278 262 167 275 255 253 216 208 202 225 204 204 201 185 171 174 172 174 167
226 223 224 229 230 225 227 204 204 195 191 192 194 191 216 234 246 214 188 87 176 187 100 333 303 299 274 291 272 146 148 178 151 226 232 208 241 171 242 249 252 257 231 223 196 126 184 199 201 181 159 171 171 169
225 221 221 224 222 220 220 204 196 198 193 196 195 196 207 244 271 257 251 243 213 244 80 141 279 0 150 346 315 346 298 15 216 215 261 192 137 186 258 250 277 251 270 230 193 204 186 170 135 155 135 141 152 167
223 220 219 221 218 214 211 201 189 193 189 187 185 181 187 218 225 231 225 216 214 201 211 144 171 232 157 179 143 42 37 300 319 245 244 129 211 226 238 248 229 231 220 223 201 182 151 173 178 170 154 164 166 182
220 219 217 218 211 210 204 194 183 185 187 180 162 165 219 190 166 160 64 28 10 265 230 217 154 185 138 162 227 125 124 229 287 264 4 223 259 248 252 246 245 231 217 177 157 208 193 196 187 182 189 187 187 181
221 217 217 215 206 204 198 185 176 174 167 169 166 178 139 143 134 65 269 156 198 285 209 234 181 150 225 127 197 203 187 169 112 263 227 296 271 250 273 259 260 251 208 203 205 206 202 192 186 181 181 181 177 181
222 216 216 213 202 199 190 179 181 172 166 179 148 125 126 99 56 118 220 284 185 230 214 146 208 165 167 106 115 232 154 40 251 181 90 264 262 336 328 299 292 274 213 198 181 181 181 183 181 182 180 179 183 190
222 216 214 210 200 191 186 181 183 171 143 134 89 92 115 246 91 185 199 238 216 179 181 142 105 139 56 50 74 103 112 217 87 52 243 234 312 326 325 306 303 298 226 183 163 173 179 180 182 170 171 186 187 179
219 213 210 206 194 182 182 179 176 165 156 137 162 198 191 195 229 191 191 188 216 119 136 119 107 140 152 102 162 115 231 93 30 287 238 285 287 306 313 307 315 320 298 180 164 161 161 161 164 173 181 180 175 172
213 208 202 196 183 176 179 180 171 173 168 172 169 217 199 211 242 155 164 97 252 140 129 97 59 108 158 125 181 80 353 248 212 228 229 238 286 300 311 309 298 300 246 160 140 149 152 147 144 141 159 167 173 170
204 192 181 179 170 171 174 178 169 177 179 193 225 201 147 108 213 166 171 188 190 145 86 69 125 101 230 166 130 206 154 228 244 218 240 271 307 307 296 290 285 265 197 168 161 164 157 152 151 153 154 163 170 176
179 186 181 167 162 167 172 145 128 174 204 214 210 213 164 147 188 168 161 195 148 129 184 133 153 205 104 90 229 189 211 222 211 248 247 250 268 288 297 283 271 244 197 175 156 165 166 168 158 149 150 172 172 176
184 174 165 158 157 158 167 175 166 184 212 215 178 196 193 168 149 141 174 154 137 184 135 204 135 149 198 184 226 229 230 244 240 244 254 267 261 274 268 257 254 231 204 178 166 161 159 160 162 180 177 170 167 175
184 164 159 156 156 141 140 188 184 206 205 182 256 140 175 189 210 136 151 173 126 126 119 102 186 194 216 218 210 227 233 205 224 242 236 236 231 234 254 254 220 201 198 185 169 174 177 186 191 184 181 180 180 173
175 162 159 157 153 122 127 152 153 173 186 193 119 204 193 194 164 159 154 164 142 113 106 201 212 215 206 221 201 215 220 203 171 270 283 255 229 204 196 192 227 201 193 191 186 169 160 157 175 179 181 184 176 174
156 164 157 153 157 119 126 147 160 180 151 184 156 155 214 16 135 151 166 133 167 201 226 225 238 244 228 238 239 227 230 182 207 225 264 270 235 213 213 205 206 195 181 191 183 190 180 179 181 176 168 176 174 177
155 153 149 156 113 117 108 158 134 135 126 144 132 137 163 187 207 190 131 173 216 221 217 232 236 241 245 243 247 241 250 241 232 234 245 222 196 191 214 202 171 194 200 205 207 206 188 180 174 169 171 165 180 176
138 151 101 109 117 107 119 135 105 161 153 162 139 174 204 202 211 101 194 206 234 222 228 229 237 240 245 257 263 258 251 228 244 241 240 231 228 219 206 194 198 186 198 209 209 198 184 174 157 166 165 172 176 166
127 102 139 139 139 152 141 166 133 130 131 168 173 195 199 196 155 210 241 221 234 186 206 227 231 248 253 290 251 254 255 233 245 252 234 200 213 221 208 210 199 208 200 189 186 184 176 163 160 165 175 176 177 178
104 165 154 154 141 129 130 137 144 154 155 167 156 204 180 176 187 229 227 249 228 224 228 229 223 225 237 250 256 257 256 226 229 242 241 219 233 163 163 190 197 201 195 167 159 168 166 166 175 177 178 181 181 188
134 169 176 170 141 133 158 148 179 150 130 141 197 179 147 169 199 239 225 210 200 202 210 209 215 226 235 232 250 258 256 244 224 234 246 217 206 206 200 184 185 204 201 190 169 171 169 173 177 180 177 178 183 180
147 151 172 112 121 116 118 90 103 116 153 173 173 165 157 192 231 243 262 237 205 213 211 211 199 207 228 238 231 246 255 253 222 234 246 236 219 213 203 192 197 192 194 191 188 186 175 175 178 182 178 187 192 189
141 142 155 169 127 150 128 131 145 174 176 180 141 183 179 194 224 224 206 230 186 183 183 193 210 222 234 248 261 258 236 213 190 182 169 188 208 215 215 209 198 183 186 193 193 194 189 184 181 179 179 180 183 182
153 147 127 110 103 144 176 167 192 206 159 167 172 186 219 219 214 201 209 183 173 171 140 199 229 226 240 250 250 233 215 179 155 173 200 203 167 206 183 179 166 166 169 163 173 184 181 179 177 175 172 171 170 169
173 174 93 121 158 196 212 173 191 206 174 172 181 339 323 271 233 213 183 172 168 205 220 224 226 196 211 187 212 223 221 216 207 218 222 225 204 170 166 162 156 154 156 157 151 143 142 143 144 148 152 155 160 161
119 95 95 129 191 227 194 180 24 70 61 96 1 199 245 294 300 232 222 229 232 229 211 219 220 217 201 192 186 198 244 227 221 227 231 206 178 171 167 163 160 156 156 155 149 149 150 156 158 156 158 159 159 164
125 149 129 124 236 303 20 117 156 151 4 73 272 15 348 16 262 264 221 206 183 205 225 217 213 228 221 232 231 228 235 239 222 209 201 186 174 169 168 164 162 159 155 152 155 158 162 158 158 160 160 163 165 163
57 62 70 102 81 90 274 90 92 329 2 272 256 194 204 198 241 257 223 215 213 218 217 218 227 235 231 231 227 222 222 229 218 198 194 189 180 171 167 163 163 162 162 158 158 159 160 159 157 158 160 162 162 164